DW4212 La Cabrera ES current weather conditions

sailwx.info

Wind from 355 at 7 knots gusting 19

Air temperature 5.6° C
Dewpoint -5.4° C

Last reported at 2015-Jan-25 09:49 UTC.
Time now 2015-Jan-25 10:19 UTC

Location: N 40°53' W 003°35'.
View on Google Maps.

See reports from other nearby stations

  
Tides and Currents Weather Stations Pressure Air Temp Water Temp Dewpoint Dewpoint Depression Visibility Wind Speed Wind Dir Waves Ship Positions
date/time (UTC)wind fromknots sea level pressurealtimeterstation pressurevisibilityair tempwater tempwave heightnotes
2015-Jan-25 09:49 355 7 gusting 19 5.6
2015-Jan-25 09:39 021 13 gusting 19 5.0
2015-Jan-25 09:30 329 10 gusting 18 5.0
2015-Jan-25 09:19 321 10 gusting 19 4.4
2015-Jan-25 09:09 355 10 gusting 19 4.4
2015-Jan-25 08:59 017 10 gusting 20 4.4
2015-Jan-25 08:49 005 7 gusting 15 4.4
2015-Jan-25 08:39 355 8 gusting 13 3.9
2015-Jan-25 08:29 329 6 gusting 13 3.9
2015-Jan-25 08:19 355 5 gusting 11 3.3
2015-Jan-25 08:09 355 5 gusting 11 3.3
2015-Jan-25 07:59 344 6 gusting 11 2.8
2015-Jan-25 07:49 311 6 gusting 12 2.8
2015-Jan-25 07:39 005 7 gusting 15 2.8
2015-Jan-25 07:29 312 7 gusting 16 2.8
2015-Jan-25 07:19 009 6 gusting 13 2.8
2015-Jan-25 07:09 331 5 gusting 12 2.8
2015-Jan-25 06:59 360 4 gusting 13 2.8
2015-Jan-25 06:49 360 7 gusting 13 2.8
2015-Jan-25 06:29 340 7 gusting 15 2.2
2015-Jan-25 06:19 344 6 gusting 13 2.8
2015-Jan-25 06:09 319 6 gusting 17 2.8
2015-Jan-25 05:59 005 7 gusting 16 2.8
2015-Jan-25 05:49 005 9 gusting 18 2.8
2015-Jan-25 05:39 281 8 gusting 17 2.8
2015-Jan-25 05:29 005 6 gusting 14 2.8
2015-Jan-25 05:19 009 6 gusting 15 2.8
2015-Jan-25 05:09 325 6 gusting 13 2.8
2015-Jan-25 04:59 350 6 gusting 13 2.8
2015-Jan-25 04:49 335 9 gusting 15 2.8
2015-Jan-25 04:39 350 6 gusting 16 2.8
2015-Jan-25 04:19 355 7 gusting 14 3.3
2015-Jan-25 04:09 351 8 gusting 17 3.3
2015-Jan-25 03:59 005 9 gusting 19 3.3
2015-Jan-25 03:49 339 8 gusting 15 3.3
2015-Jan-25 03:39 332 7 gusting 18 3.3
2015-Jan-25 03:29 011 9 gusting 14 3.3
2015-Jan-25 03:19 334 7 gusting 18 3.3
2015-Jan-25 03:09 013 9 gusting 18 3.3
2015-Jan-25 02:59 343 9 gusting 19 3.9
2015-Jan-25 02:49 302 8 gusting 16 3.9
2015-Jan-25 02:39 327 8 gusting 20 3.9
2015-Jan-25 02:29 314 9 gusting 17 3.9
2015-Jan-25 02:19 355 10 gusting 21 3.9
2015-Jan-25 02:09 342 8 gusting 20 3.9
2015-Jan-25 01:59 005 8 gusting 19 4.4
2015-Jan-25 01:49 338 7 gusting 15 4.4
2015-Jan-25 01:39 355 9 gusting 17 4.4
2015-Jan-25 01:29 020 8 gusting 17 4.4
2015-Jan-25 01:19 342 8 gusting 16 4.4
2015-Jan-25 01:09 355 7 gusting 17 5.0
2015-Jan-25 00:59 360 10 gusting 19 5.0
2015-Jan-25 00:49 360 7 gusting 21 5.0
2015-Jan-25 00:39 309 11 gusting 18 5.0
2015-Jan-25 00:29 360 10 gusting 17 5.0
2015-Jan-25 00:19 346 11 gusting 23 5.0
2015-Jan-25 00:09 005 9 gusting 17 5.0
2015-Jan-24 23:59 355 9 gusting 19 5.6
2015-Jan-24 23:49 017 10 gusting 16 5.6
2015-Jan-24 23:39 021 8 gusting 15 5.6
2015-Jan-24 23:29 030 6 gusting 13 5.6
2015-Jan-24 23:19 032 6 gusting 18 5.6
2015-Jan-24 23:09 342 6 gusting 19 5.6
2015-Jan-24 22:59 321 6 gusting 13 5.6
2015-Jan-24 22:49 013 7 gusting 14 5.6
2015-Jan-24 22:39 009 6 gusting 22 5.6
2015-Jan-24 22:29 360 7 gusting 19 5.6
2015-Jan-24 22:19 024 6 gusting 13 5.6
2015-Jan-24 22:09 355 6 gusting 13 5.6
2015-Jan-24 21:59 332 6 gusting 14 5.6
2015-Jan-24 21:49 345 6 gusting 12 5.6
2015-Jan-24 21:39 360 6 gusting 13 5.6
2015-Jan-24 21:29 319 6 gusting 13 6.1
2015-Jan-24 21:19 319 6 gusting 14 6.1
2015-Jan-24 21:09 355 6 gusting 14 6.1
2015-Jan-24 20:59 329 6 gusting 12 6.1
2015-Jan-24 20:49 355 6 gusting 13 6.1
2015-Jan-24 20:39 029 6 gusting 14 6.1
2015-Jan-24 20:29 005 6 gusting 12 6.1
2015-Jan-24 20:19 327 6 gusting 16 6.1
2015-Jan-24 20:09 049 7 gusting 13 6.1
2015-Jan-24 19:59 005 6 gusting 15 6.7
2015-Jan-24 19:49 346 6 gusting 17 6.1
2015-Jan-24 19:39 355 8 gusting 16 6.1
2015-Jan-24 19:29 321 7 gusting 19 5.6
2015-Jan-24 19:19 011 6 gusting 16 5.6
2015-Jan-24 19:09 005 8 gusting 18 5.6
2015-Jan-24 18:59 323 9 gusting 17 5.6
2015-Jan-24 18:49 342 6 gusting 14 5.0
2015-Jan-24 18:39 323 6 gusting 14 5.0
2015-Jan-24 18:29 005 5 gusting 13 5.0
2015-Jan-24 18:19 314 5 gusting 12 5.0
2015-Jan-24 18:09 355 6 gusting 11 5.0
2015-Jan-24 17:59 005 4 gusting 12 5.0
2015-Jan-24 17:49 306 4 gusting 13 5.0
2015-Jan-24 17:39 346 4 gusting 13 5.0
2015-Jan-24 17:29 321 5 gusting 11 5.0
2015-Jan-24 17:19 005 5 gusting 13 5.6
2015-Jan-24 17:09 342 4 gusting 13 6.1
2015-Jan-24 16:59 355 4 gusting 13 6.1
2015-Jan-24 16:49 355 6 gusting 11 6.1
2015-Jan-24 16:39 360 5 gusting 13 6.7
2015-Jan-24 16:29 344 6 gusting 12 6.7
2015-Jan-24 16:19 346 5 gusting 9 6.7
2015-Jan-24 16:09 347 3 gusting 11 7.2
2015-Jan-24 15:59 347 2 gusting 8 7.2
2015-Jan-24 15:49 024 4 gusting 12 7.8
2015-Jan-24 15:39 355 6 gusting 13 7.8
2015-Jan-24 15:29 005 5 gusting 12 7.8
2015-Jan-24 15:19 323 6 gusting 13 8.3
2015-Jan-24 15:09 320 6 gusting 11 8.3
2015-Jan-24 14:59 009 7 gusting 14 8.3
2015-Jan-24 14:49 005 6 gusting 13 8.9
2015-Jan-24 14:39 322 5 gusting 11 8.9
2015-Jan-24 14:29 022 5 gusting 10 8.9
2015-Jan-24 14:19 318 6 gusting 11 8.9
2015-Jan-24 14:09 339 7 gusting 13 8.9
2015-Jan-24 13:59 360 7 gusting 14 8.9
2015-Jan-24 13:49 330 4 gusting 12 8.9
2015-Jan-24 13:39 355 4 gusting 13 9.4
2015-Jan-24 13:29 051 284 gusting 284 8.9
2015-Jan-24 13:09 360 6 gusting 12 8.9
2015-Jan-24 12:59 317 6 gusting 11 8.9
2015-Jan-24 12:49 025 6 gusting 13 8.9
2015-Jan-24 12:39 355 3 gusting 10 8.9
2015-Jan-24 12:29 017 5 gusting 9 8.3
2015-Jan-24 12:19 017 6 gusting 15 7.8
2015-Jan-24 11:59 009 6 gusting 14 8.3
2015-Jan-24 11:49 049 8 gusting 15 8.3
2015-Jan-24 11:39 057 6 gusting 14 8.3
2015-Jan-24 11:29 338 4 gusting 9 7.8
2015-Jan-24 11:19 355 4 gusting 11 7.2
2015-Jan-24 11:09 012 6 gusting 13 6.7
2015-Jan-24 10:59 336 6 gusting 13 6.1
2015-Jan-24 10:49 350 7 gusting 15 5.0
2015-Jan-24 10:39 016 8 gusting 17 5.0
2015-Jan-24 10:29 014 9 gusting 17 4.4
2015-Jan-24 10:19 349 8 gusting 16 4.4
2015-Jan-24 10:09 331 6 gusting 15 4.4
2015-Jan-24 09:59 029 7 gusting 15 4.4
2015-Jan-24 09:49 034 6 gusting 12 3.9
2015-Jan-24 09:39 303 7 gusting 15 3.3
2015-Jan-24 09:29 005 6 gusting 14 3.9
2015-Jan-24 09:19 360 6 gusting 11 3.3
2015-Jan-24 09:09 005 6 gusting 12 2.8
2015-Jan-24 08:59 009 6 gusting 12 2.8
2015-Jan-24 08:49 015 4 gusting 13 2.2
2015-Jan-24 08:39 335 6 gusting 14 2.2
2015-Jan-24 08:30 036 7 gusting 13 2.2
2015-Jan-24 08:19 348 7 gusting 14 2.2
2015-Jan-24 08:09 355 7 gusting 14 2.2
2015-Jan-24 07:59 011 6 gusting 13 2.2
2015-Jan-24 07:49 355 6 gusting 17 2.2
2015-Jan-24 07:39 005 6 gusting 12 2.2
2015-Jan-24 07:29 360 6 gusting 13 2.2
2015-Jan-24 07:19 336 6 gusting 13 2.2
2015-Jan-24 07:09 324 6 gusting 11 2.2
2015-Jan-24 06:59 036 4 gusting 13 2.2
2015-Jan-24 06:49 347 7 gusting 13 2.2
2015-Jan-24 05:49 009 6 gusting 11 1.1
2015-Jan-24 05:39 350 4 gusting 9 1.1
2015-Jan-24 05:29 005 5 gusting 9 1.1
2015-Jan-24 05:19 005 4 gusting 8 1.1
2015-Jan-24 05:09 348 3 gusting 8 1.1
2015-Jan-24 04:59 005 4 gusting 8 0.6
2015-Jan-24 04:49 360 4 gusting 9 -0.0
2015-Jan-24 04:39 013 1 gusting 6 -0.0
2015-Jan-24 04:29 355 5 gusting 10 0.6
2015-Jan-24 04:19 355 5 gusting 13 -0.0
2015-Jan-24 04:09 005 5 gusting 7 -0.0
2015-Jan-24 03:59 009 2 gusting 8 0.6
2015-Jan-24 03:49 360 4 gusting 10 0.6
2015-Jan-24 03:39 025 4 gusting 9 0.6
2015-Jan-24 03:29 355 4 gusting 10 -0.0
2015-Jan-24 03:19 005 6 gusting 10 -0.0
2015-Jan-24 03:09 327 6 gusting 13 0.6
2015-Jan-24 02:59 331 6 gusting 12 0.6
2015-Jan-24 02:49 326 6 gusting 11 0.6
2015-Jan-24 02:29 328 5 gusting 8 -0.0
2015-Jan-24 02:19 317 4 gusting 11 -0.0
2015-Jan-24 02:09 333 5 gusting 9 -0.0
2015-Jan-24 01:59 355 2 gusting 7 -0.6
2015-Jan-24 01:49 005 2 gusting 7 -0.6
2015-Jan-24 01:39 342 2 gusting 10 -0.6
2015-Jan-24 01:29 038 6 gusting 12 -0.6
2015-Jan-24 01:19 304 6 gusting 14 -0.6
2015-Jan-24 01:09 080 9 gusting 15 -0.6
2015-Jan-24 00:59 350 7 gusting 13 -0.6
2015-Jan-24 00:49 349 6 gusting 12 -0.6
2015-Jan-24 00:39 046 5 gusting 13 -0.0
2015-Jan-24 00:19 010 6 gusting 13 -0.6
2015-Jan-24 00:09 328 5 gusting 12 -0.0
2015-Jan-23 23:59 038 6 gusting 11 -0.6
2015-Jan-23 23:49 027 6 gusting 12 -0.6
2015-Jan-23 23:39 010 6 gusting 11 -0.0
2015-Jan-23 23:29 343 5 gusting 11 -0.0
2015-Jan-23 23:19 355 5 gusting 11 -0.0
2015-Jan-23 23:09 325 6 gusting 13 -0.0
2015-Jan-23 22:59 005 4 gusting 13 0.6
2015-Jan-23 22:49 338 5 gusting 12 0.6
2015-Jan-23 22:39 333 6 gusting 13 0.6
2015-Jan-23 22:29 015 6 gusting 13 0.6
2015-Jan-23 22:19 029 7 gusting 14 0.6
2015-Jan-23 22:09 324 9 gusting 15 0.6
2015-Jan-23 22:00 355 7 gusting 12 0.6
2015-Jan-23 21:49 005 7 gusting 14 0.6
2015-Jan-23 21:39 360 7 gusting 17 0.6
2015-Jan-23 21:29 009 6 gusting 13 1.1
2015-Jan-23 21:19 020 5 gusting 13 1.1
2015-Jan-23 21:09 332 6 gusting 14 1.1
2015-Jan-23 20:59 355 6 gusting 13 1.1
2015-Jan-23 20:49 360 5 gusting 13 1.1
2015-Jan-23 20:39 005 6 gusting 13 1.7
2015-Jan-23 20:29 005 6 gusting 13 1.7
2015-Jan-23 20:19 355 9 gusting 15 1.7
2015-Jan-23 20:09 306 9 gusting 17 1.7
2015-Jan-23 19:59 355 8 gusting 17 1.7
2015-Jan-23 19:49 346 9 gusting 19 1.7
2015-Jan-23 19:39 022 13 gusting 19 1.7
2015-Jan-23 19:29 329 8 gusting 19 1.7
2015-Jan-23 19:19 327 7 gusting 16 1.7
2015-Jan-23 19:09 355 9 gusting 17 1.7
2015-Jan-23 18:59 333 6 gusting 13 1.7
2015-Jan-23 18:49 005 9 gusting 16 1.7
2015-Jan-23 18:39 315 6 gusting 13 1.7
2015-Jan-23 18:29 013 7 gusting 13 1.7
2015-Jan-23 18:19 011 6 gusting 14 1.7
2015-Jan-23 18:09 020 6 gusting 10 2.2
2015-Jan-23 17:59 010 6 gusting 14 2.2
2015-Jan-23 17:49 011 5 gusting 12 2.2
2015-Jan-23 17:39 009 7 gusting 13 2.2
2015-Jan-23 17:29 341 7 gusting 13 2.2
2015-Jan-23 17:19 338 8 gusting 14 2.2
2015-Jan-23 17:09 360 7 gusting 15 2.8
2015-Jan-23 16:59 349 7 gusting 17 2.8
2015-Jan-23 16:49 005 7 gusting 16 3.3
2015-Jan-23 16:39 307 7 gusting 14 3.3
2015-Jan-23 16:29 333 8 gusting 13 3.3
2015-Jan-23 16:19 342 8 gusting 15 3.3
2015-Jan-23 16:09 005 10 gusting 14 3.3
2015-Jan-23 15:59 010 8 gusting 14 3.9
2015-Jan-23 15:49 013 7 gusting 18 3.9
2015-Jan-23 15:39 355 9 gusting 15 3.9
2015-Jan-23 15:29 013 8 gusting 15 3.9
2015-Jan-23 15:19 022 8 gusting 18 3.9
2015-Jan-23 15:09 348 9 gusting 16 4.4
2015-Jan-23 14:59 017 9 gusting 17 4.4
2015-Jan-23 14:49 337 8 gusting 17 4.4
2015-Jan-23 14:39 011 6 gusting 19 4.4
2015-Jan-23 14:29 032 7 gusting 15 4.4
2015-Jan-23 14:19 306 6 gusting 17 4.4
2015-Jan-23 14:09 360 8 gusting 17 4.4
2015-Jan-23 13:59 303 7 gusting 16 4.4
2015-Jan-23 13:49 360 7 gusting 21 4.4
2015-Jan-23 13:39 345 9 gusting 17 4.4
2015-Jan-23 13:29 326 7 gusting 16 4.4
2015-Jan-23 13:19 321 6 gusting 13 4.4
2015-Jan-23 13:09 360 8 gusting 15 4.4
2015-Jan-23 12:59 360 6 gusting 14 4.4
2015-Jan-23 12:39 340 6 gusting 16 4.4
2015-Jan-23 12:29 331 6 gusting 15 4.4
2015-Jan-23 12:19 346 7 gusting 14 3.9
2015-Jan-23 12:09 298 8 gusting 16 3.9
2015-Jan-23 11:59 350 7 gusting 14 3.9
2015-Jan-23 11:49 360 5 gusting 10 4.4
2015-Jan-23 11:39 355 5 gusting 10 3.9
2015-Jan-23 11:29 019 6 gusting 18 3.3
2015-Jan-23 11:19 297 5 gusting 14 3.9
2015-Jan-23 11:09 005 8 gusting 13 3.9
2015-Jan-23 10:59 355 6 gusting 13 3.9
2015-Jan-23 10:49 321 4 gusting 10 3.3
2015-Jan-23 10:39 345 7 gusting 14 2.8
2015-Jan-23 10:29 324 6 gusting 14 2.8
2015-Jan-23 10:19 013 5 gusting 13 2.8
2015-Jan-23 10:09 355 5 gusting 12 2.8